Tracking 17996 objects as of 28-February-2017
HD Live streaming from Space Station
objects crossing your sky now

ZY 3

Track ZY 3 now!
10-day predictions
ZY 3 is classified as:


NORAD ID: 38046
Int'l Code: 2012-001A
Perigee: 507.2 km
Apogee: 510.2 km
Inclination: 97.3 °
Period: 94.6 minutes
Semi major axis: 6879 km
RCS: 5.391 m2 (large)
Launch date: January 9, 2012
Source: People's Republic of China (PRC)
Launch site: Taiyaun Space Center, China (TSC)
Your satellite tracking list
Your tracking list is empty





NASA's NSSDC Master Catalog

Two Line Element Set (TLE):
1 38046U 12001A   17059.19859139  .00000915  00000-0  43752-4 0  9992
2 38046  97.2982 128.9123 0002170  49.2741  34.9908 15.21412098285385
Source of the keplerian elements: AFSPC